Weather History for Defiance, OH

Change the Weather History Date:

Friday, May 24, 2013

  Actual Average Record
Temperature  
Mean Temperature 52 °F -  
Max Temperature 63 °F 73 °F 90 °F (1964)
Min Temperature 42 °F 50 °F 34 °F (1963)
Degree Days  
Heating Degree Days 12    
Growing Degree Days 2 (Base 50)    
Moisture  
Dew Point 37 °F    
Average Humidity 61    
Maximum Humidity 83    
Minimum Humidity 34    
Precipitation  
Precipitation 0.00 in - - ()
Sea Level Pressure  
Sea Level Pressure 30.29 in    
Wind  
Wind Speed 10 mph (North)    
Max Wind Speed 15 mph    
Max Gust Speed 20 mph    
Visibility 10 miles    
Events      
Averages and records for this station are not official NWS values.
T = Trace of Precipitation, MM = Missing Value Source: NWS Daily Summary

Daily Weather History Graph

Daily Weather History Graph

Search for Another Location

Airport:

Trip Planner

Search our weather history database for the weather conditions in past years. The results will help you decide how hot, cold, wet, or windy it might be!

Date:

Astronomy

May. 24, 2013 Rise Set
Actual Time 6:11 AM EDT 8:58 PM EDT
Civil Twilight 5:38 AM EDT 9:30 PM EDT
Nautical Twilight 4:58 AM EDT 10:11 PM EDT
Astronomical Twilight 4:11 AM EDT 10:58 PM EDT
Moon 8:39 PM EDT (5/24) 5:43 AM EDT (5/24)
Length of Visible Light 15h 52m
Length of Day
14h 47m
Full, 100% of the Moon is Illuminated
May 24
Full
May 25
Full
May 31
Last Quarter
Jun 8
New
Jun 16
First Quarter

Hourly Weather History & Observations

Time (EDT) Temp. Windchill Dew Point Humidity Pressure Visibility Wind Dir Wind Speed Gust Speed Precip Events Conditions
12:53 AM 48.0 °F - 43.0 °F 83% 30.18 in 10.0 mi North 15.0 mph - N/A   Overcast
1:10 AM 48.2 °F - 42.8 °F 82% 30.17 in 10.0 mi North 8.1 mph - N/A   Overcast
1:53 AM 48.0 °F - 43.0 °F 83% 30.19 in 10.0 mi North 6.9 mph - N/A   Overcast
2:53 AM 48.0 °F - 42.1 °F 80% 30.19 in 10.0 mi North 8.1 mph - N/A   Overcast
3:03 AM 48.2 °F - 42.8 °F 82% 30.19 in 10.0 mi North 6.9 mph - N/A   Overcast
3:53 AM 48.0 °F - 41.0 °F 77% 30.22 in 10.0 mi North 10.4 mph - N/A   Overcast
4:53 AM 45.0 °F 41.8 °F 39.9 °F 82% 30.24 in 10.0 mi North 5.8 mph - N/A   Scattered Clouds
5:53 AM 43.0 °F 38.2 °F 36.0 °F 76% 30.25 in 10.0 mi North 8.1 mph - N/A   Clear
6:53 AM 42.1 °F 37.7 °F 36.0 °F 79% 30.28 in 10.0 mi NNW 6.9 mph - N/A   Clear
7:53 AM 44.1 °F 39.5 °F 37.0 °F 76% 30.30 in 10.0 mi North 8.1 mph - N/A   Clear
8:53 AM 46.9 °F - 37.0 °F 68% 30.33 in 10.0 mi North 10.4 mph - N/A   Clear
9:53 AM 50.0 °F - 37.0 °F 61% 30.34 in 10.0 mi North 10.4 mph - N/A   Scattered Clouds
10:10 AM 48.2 °F - 37.4 °F 66% 30.34 in 10.0 mi NNW 12.7 mph - N/A   Mostly Cloudy
10:43 AM 51.8 °F - 35.6 °F 54% 30.34 in 10.0 mi NNW 11.5 mph 17.3 mph N/A   Scattered Clouds
10:53 AM 51.1 °F - 37.0 °F 59% 30.35 in 10.0 mi North 12.7 mph 17.3 mph N/A   Partly Cloudy
11:53 AM 53.1 °F - 36.0 °F 52% 30.35 in 10.0 mi NW 10.4 mph - N/A   Clear
12:53 PM 55.9 °F - 34.0 °F 44% 30.35 in 10.0 mi NNW 13.8 mph - N/A   Clear
1:53 PM 57.9 °F - 37.0 °F 46% 30.35 in 10.0 mi NNW 10.4 mph 17.3 mph N/A   Clear
2:53 PM 61.0 °F - 37.0 °F 41% 30.34 in 10.0 mi North 12.7 mph 17.3 mph N/A   Clear
3:53 PM 62.1 °F - 35.1 °F 37% 30.33 in 10.0 mi NNW 5.8 mph 19.6 mph N/A   Clear
4:53 PM 63.0 °F - 34.0 °F 34% 30.32 in 10.0 mi North 13.8 mph 19.6 mph N/A   Clear
5:53 PM 62.1 °F - 34.0 °F 35% 30.32 in 10.0 mi North 9.2 mph - N/A   Clear
6:53 PM 62.1 °F - 33.1 °F 34% 30.30 in 10.0 mi North 13.8 mph 18.4 mph N/A   Clear
7:53 PM 60.1 °F - 34.0 °F 38% 30.29 in 10.0 mi NNE 6.9 mph - N/A   Clear
8:53 PM 55.9 °F - 34.0 °F 44% 30.29 in 10.0 mi NE 4.6 mph - N/A   Clear
9:53 PM 50.0 °F - 36.0 °F 59% 30.31 in 10.0 mi Calm Calm - N/A   Clear
10:53 PM 50.0 °F - 36.0 °F 59% 30.34 in 10.0 mi ENE 4.6 mph - N/A   Clear
11:53 PM 46.9 °F - 36.0 °F 66% 30.34 in 10.0 mi ENE 3.5 mph - N/A   Clear